[[{"header":{"parameterUnit":"m.s-1","parameterCategory":1,"la1":30.2992,"la2":30.254,"lo1":-89.0895,"lo2":-89.0443,"dy":0.0025,"dx":0.0025,"nx":19,"ny":19,"refTime":"2026-04-16T09:00:00:Z","depth":0,"parameterNumber":2,"parameterNumberName":"U-component_of_WINDS"},"data":[0,0,0,0.0123,0.0122,0.0061,0.0061,-0.0015,-0.0015,0,0,0,0,0,0,0,0,0,0,0,0.0145,0.0144,0.0123,0.0122,0.0061,0.0061,-0.0014,-0.0015,0,0,0,0,0,0,0,0,0,0,0,0.0145,0.0144,0.0144,0.0121,0.0061,0.0061,-0.0014,0.003,0,0,0,0,0,0,0,0,0,0,0.0088,0.0113,0.0144,0.0144,0.0121,0.0061,0.0061,0.0032,0.0027,0.0015,0,0.0007,0,-0.0005,-0.002,-0.002,0,0,0,0.0118,0.0117,0.0097,0.0144,0.0121,0.0061,0.0087,0.0029,0.0024,0.0008,0.0005,0.0002,-0.0007,-0.002,-0.0021,-0.0078,-0.0078,0,0,0.0121,0.0135,0.0101,0.0094,0.0106,0.0089,0.0086,0.0026,0.0023,0.0005,0.0001,-0.0008,-0.0021,-0.0021,-0.0078,-0.0078,0,0,0,0.0133,0.0138,0.012,0.0097,0.0086,0.0088,0.0083,0.0026,0.0019,-0.0,-0.0009,-0.0021,-0.0022,-0.0078,-0.0078,-0.007,0,0,0,0.0135,0.0145,0.0121,0.0129,0.0088,0.0056,0.0085,0.0023,0.0016,-0.0008,-0.0021,-0.0023,-0.0078,-0.0078,-0.007,-0.0068,0,0,0,0.0147,0.0146,0.0139,0.013,0.0105,0.0056,0.0046,0.0021,0.0011,-0.002,-0.0023,-0.0078,-0.0078,-0.007,-0.0068,-0.008,0,0,0,0.0163,0.0147,0.0139,0.0117,0.0105,0.0063,0.0046,0.0013,-0.0012,-0.0022,-0.0078,-0.0078,-0.007,-0.0068,-0.008,-0.0088,-0.009,0,0,0.0151,0.0146,0.0132,0.0123,0.0086,0.0071,0.0034,-0.0003,-0.002,-0.0059,-0.006,-0.007,-0.0068,-0.008,-0.0103,-0.0104,0,0,0,0.0132,0.0122,0.011,0.0087,0.0059,0.0034,0.0002,-0.0013,-0.0046,-0.0036,-0.0077,-0.0077,-0.0085,-0.0089,-0.009,-0.0099,-0.0079,-0.0079,-0.0079,0.0134,0.0114,0.0089,0.0062,0.004,0.0006,-0.0015,-0.0041,-0.0054,-0.0064,-0.0076,-0.0086,-0.0091,-0.0092,-0.01,-0.0081,-0.0081,-0.0081,-0.0081,0.0112,0.0095,0.0077,0.0046,0.0024,-0.0004,-0.0038,-0.0047,-0.0078,-0.0079,-0.0087,-0.0087,-0.0093,-0.0101,-0.008,-0.008,-0.008,-0.008,-0.0081,0.0111,0.0099,0.0083,0.0047,0.002,-0.0008,-0.0036,-0.0055,-0.0074,-0.0081,-0.0097,-0.0097,-0.0101,-0.0087,-0.0087,-0.0087,-0.0087,-0.0087,-0.0087,0.0116,0.0097,0.0077,0.0045,0.0027,0.0,-0.0036,-0.0055,-0.0082,-0.0094,-0.0094,-0.0108,-0.0089,-0.0084,-0.0088,-0.0088,-0.0088,-0.0088,-0.0088,0.0101,0.0101,0.007,0.0052,0.0011,-0.0015,-0.004,-0.0078,-0.0097,-0.0111,-0.0124,-0.0106,-0.0112,-0.0112,-0.0108,-0.0118,-0.0118,-0.0118,-0.0118,0.0099,0.0094,0.0057,0.0029,-0.0001,-0.0027,-0.0065,-0.0095,-0.0126,-0.0139,-0.0141,-0.0137,-0.0136,-0.0143,-0.0142,-0.0139,-0.0157,-0.0157,-0.0157,0.0088,0.0079,0.0052,0.0023,-0.0011,-0.004,-0.0077,-0.0112,-0.0147,-0.0159,-0.0151,-0.015,-0.0144,-0.0141,-0.0152,-0.015,-0.0145,0,0]},{"header":{"parameterUnit":"m.s-1","parameterCategory":1,"la1":30.2992,"la2":30.254,"lo1":-89.0895,"lo2":-89.0443,"dy":0.0025,"dx":0.0025,"nx":19,"ny":19,"refTime":"2026-04-16T09:00:00:Z","depth":0,"parameterNumber":3,"parameterNumberName":"V-component_of_WINDS"},"data":[0,0,0,4.3004,4.3004,4.3028,4.3028,4.3073,4.3074,0,0,0,0,0,0,0,0,0,0,0,4.3008,4.3008,4.3004,4.3004,4.3028,4.3028,4.3073,4.3074,0,0,0,0,0,0,0,0,0,0,0,4.3007,4.3008,4.3009,4.3005,4.3028,4.3028,4.3073,4.3049,0,0,0,0,0,0,0,0,0,0,4.3023,4.3039,4.3008,4.3009,4.3005,4.3028,4.3028,4.3048,4.3051,4.3069,0,4.309,0,4.3083,4.3078,4.3078,0,0,0,4.2996,4.3037,4.3033,4.3009,4.3005,4.3028,4.3015,4.3049,4.3052,4.3073,4.3091,4.3092,4.3084,4.3078,4.3078,4.3215,4.3216,0,0,4.2994,4.3018,4.3031,4.3036,4.3035,4.3014,4.3016,4.3051,4.3071,4.3091,4.3093,4.3084,4.3078,4.3079,4.3214,4.3215,0,0,0,4.2996,4.3017,4.3012,4.3034,4.3037,4.3015,4.3017,4.307,4.3066,4.3093,4.3085,4.3079,4.308,4.3213,4.3215,4.3287,0,0,0,4.2995,4.3018,4.3012,4.3027,4.3037,4.3055,4.3036,4.3064,4.3067,4.3085,4.3079,4.308,4.3212,4.3214,4.3283,4.3317,0,0,0,4.3002,4.3019,4.3026,4.3028,4.3039,4.3053,4.3052,4.3064,4.3063,4.3078,4.308,4.3211,4.3214,4.3279,4.331,4.3357,0,0,0,4.3016,4.3093,4.3028,4.311,4.3039,4.3099,4.3051,4.3095,4.3117,4.3079,4.3212,4.3215,4.3277,4.3306,4.3353,4.3398,4.3421,0,0,4.3125,4.3107,4.3152,4.3095,4.3173,4.3094,4.3181,4.3179,4.3159,4.3197,4.32,4.3284,4.331,4.3356,4.3541,4.3559,0,0,0,4.3194,4.3227,4.3243,4.3265,4.3266,4.3267,4.325,4.3248,4.3279,4.3184,4.3314,4.3329,4.3355,4.3375,4.339,4.3409,4.3226,4.3226,4.3225,4.3382,4.3351,4.3423,4.3395,4.3417,4.3397,4.341,4.3404,4.3369,4.34,4.341,4.3526,4.3551,4.3562,4.3583,4.3434,4.3435,4.3435,4.3435,4.3536,4.3575,4.3524,4.3576,4.3542,4.3584,4.3566,4.3539,4.3571,4.3517,4.3538,4.3479,4.3583,4.3599,4.344,4.3439,4.3439,4.3438,4.3438,4.3652,4.3666,4.3663,4.3688,4.3711,4.368,4.3712,4.3681,4.3652,4.3674,4.3678,4.3677,4.3669,4.3679,4.3679,4.3679,4.368,4.368,4.368,4.3773,4.3768,4.3799,4.3804,4.3811,4.3818,4.3796,4.3802,4.38,4.3775,4.3774,4.3733,4.36,4.3565,4.3686,4.3685,4.3684,4.3684,4.3683,4.3936,4.3894,4.3943,4.3951,4.395,4.3972,4.3932,4.3947,4.3947,4.3963,4.3917,4.3825,4.3803,4.3791,4.3762,4.3926,4.3926,4.3926,4.3926,4.4032,4.4018,4.4059,4.4072,4.4082,4.4049,4.4102,4.4084,4.4059,4.4056,4.4028,4.3988,4.3977,4.3962,4.3946,4.3917,4.4118,4.4118,4.4118,4.4129,4.4114,4.4165,4.414,4.4137,4.4134,4.4181,4.4196,4.4159,4.4125,4.4053,4.4045,4.3979,4.396,4.3923,4.3899,4.3847,0,0]}]]